sat.trackr.live / text

‹ back to catalog

STARLINK-31808

NORAD 59751 · 2024-090X

PAYLOAD ACTIVE UNKNOWN

§ Identity

Operator
Country
US
Launch date
2024-05-13
Launch site
AFETR
Launch vehicle
Mass (kg)
RCS (m²)

Purposes: comms

External: N2YO · Heavens-Above · Gunter

§ Orbital elements

Epoch: 2026-09-21T01:20:57.941088Z

Period
94.27 min
Inclination
43.0005°
Eccentricity
0.0001197
Mean motion
15.27582550 rev/d
Perigee alt
482.2 km
Apogee alt
483.9 km
Semi-major
6,861.2 km
B*
5.5344e-5
RAAN
159.7594°
Arg perigee
272.3752°
Mean anomaly
87.6963°
Rev number
13,331

§ Raw data

STARLINK-318081 59751U 24090X   26264.05622617  .00001261  00000+0  55344-4 0  99952 59751  43.0005 159.7594 0001197 272.3752  87.6963 15.27582550133317

JSON: /api/v1/satellites/59751 · /tle

For live sub-satellite position, see the globe view (requires WebGL).

§ Visibility from observer

Set your observer location to see the next 7 days of passes ≥ 10°. The values pass through the URL so the page stays shareable.

No JS? Fill the form by hand. The geolocation button needs JavaScript.